{"data":{"norad_id":56551,"epoch":"2026-09-20T13:21:17.325792Z","epoch_age_seconds":110056,"freshness":"FRESH","line1":"1 56551U 23065BA  26263.55645053 -.00000346  00000+0 -30540-5 0  9991","line2":"2 56551  43.0029 203.1518 0001173 271.3158  88.7559 15.27577183186273","mean_motion":15.27577183,"eccentricity":0.0001173,"inclination_deg":43.0029,"raan_deg":203.1518,"arg_perigee_deg":271.3158,"mean_anomaly_deg":88.7559,"bstar":-3.054e-6,"rev_number":18627,"period_min":94.266922550649,"perigee_km":482.25271304552,"apogee_km":483.86234928253,"semimajor_km":6861.194531164,"source":"CELESTRAK","updated_at":"2026-09-21T09:00:33.478883Z"}}